Weather History for Enid, OK

Change the Weather History Date:

Wednesday, July 24, 2013

  Actual Average Record
Temperature  
Mean Temperature 78 °F -  
Max Temperature 91 °F 92 °F 116 °F (2005)
Min Temperature 66 °F 70 °F 62 °F (2006)
Cooling Degree Days 14    
Growing Degree Days 28 (Base 50)    
Moisture  
Dew Point 69 °F    
Average Humidity 72    
Maximum Humidity 100    
Minimum Humidity 46    
Precipitation  
Precipitation 0.42 in - - ()
Sea Level Pressure  
Sea Level Pressure 29.97 in    
Wind  
Wind Speed 11 mph (East)    
Max Wind Speed 22 mph    
Max Gust Speed 30 mph    
Visibility 10 miles    
Events Rain , Thunderstorm    
Averages and records for this station are not official NWS values.
T = Trace of Precipitation, MM = Missing Value Source: NWS Daily Summary

Daily Weather History Graph

Daily Weather History Graph

Search for Another Location

Airport:

Trip Planner

Search our weather history database for the weather conditions in past years. The results will help you decide how hot, cold, wet, or windy it might be!

Date:

Astronomy

Jul. 24, 2013 Rise Set
Actual Time 6:31 AM CDT 8:43 PM CDT
Civil Twilight 6:02 AM CDT 9:12 PM CDT
Nautical Twilight 5:27 AM CDT 9:47 PM CDT
Astronomical Twilight 4:48 AM CDT 10:26 PM CDT
Moon 9:56 PM CDT (7/24) 8:47 AM CDT (7/24)
Length of Visible Light 15h 09m
Length of Day
14h 11m
Waning Gibbous, 94% of the Moon is Illuminated
Jul 24
Waning Gibbous
Jul 29
Last Quarter
Aug 6
New
Aug 14
First Quarter
Aug 20
Full

Hourly Weather History & Observations

Time (CDT) Temp. Heat Index Dew Point Humidity Pressure Visibility Wind Dir Wind Speed Gust Speed Precip Events Conditions
12:15 AM 82.4 °F 87.2 °F 71.6 °F 70% 29.83 in 10.0 mi NE 6.9 mph - N/A   Clear
12:35 AM 78.8 °F - 68.0 °F 69% 29.87 in 10.0 mi NNE 19.6 mph 24.2 mph N/A   Clear
12:55 AM 73.4 °F - 64.4 °F 73% 29.92 in 10.0 mi NE 20.7 mph 29.9 mph N/A   Clear
1:15 AM - - - N/A% 29.93 in 10.0 mi ENE 21.9 mph 29.9 mph N/A   Scattered Clouds
1:35 AM - - - N/A% 29.92 in 10.0 mi ENE 15.0 mph - N/A   Scattered Clouds
1:55 AM - - - N/A% 29.90 in 10.0 mi East 10.4 mph - N/A   Scattered Clouds
2:15 AM - - - N/A% 29.89 in 10.0 mi East 10.4 mph - N/A   Clear
2:35 AM - - - N/A% 29.88 in 10.0 mi ESE 4.6 mph - N/A   Clear
2:55 AM - - - N/A% 29.88 in 10.0 mi ESE 3.5 mph - N/A   Scattered Clouds
3:15 AM - - - N/A% 29.89 in 10.0 mi Calm Calm - N/A   Mostly Cloudy
3:35 AM - - - N/A% 29.89 in 10.0 mi Calm Calm - N/A   Mostly Cloudy
3:55 AM - - - N/A% 29.94 in 10.0 mi North 13.8 mph - N/A Thunderstorm Overcast
4:15 AM - - - N/A% 29.94 in 3.0 mi SE 11.5 mph 23.0 mph 0.19 in Rain , Thunderstorm Heavy Thunderstorms and Rain
4:35 AM - - - N/A% 30.01 in 10.0 mi East 9.2 mph - 0.19 in Rain , Thunderstorm Light Thunderstorms and Rain
4:55 AM - - - N/A% 29.97 in 5.0 mi East 19.6 mph 26.5 mph 0.27 in Rain , Thunderstorm Thunderstorms and Rain
5:15 AM - - - N/A% 29.97 in 5.0 mi ESE 20.7 mph 24.2 mph 0.09 in Rain , Thunderstorm Heavy Thunderstorms and Rain
5:35 AM - - - N/A% 29.98 in 10.0 mi SE 13.8 mph 24.2 mph 0.11 in Rain , Thunderstorm Light Thunderstorms and Rain
5:55 AM - - - N/A% 29.98 in 7.0 mi SSE 13.8 mph - 0.15 in Rain , Thunderstorm Rain
6:15 AM 66.2 °F - 66.2 °F 100% 29.97 in 10.0 mi SSE 11.5 mph - N/A   Mostly Cloudy
6:55 AM 69.8 °F - 68.0 °F 94% 29.97 in 10.0 mi South 6.9 mph - N/A   Mostly Cloudy
7:50 AM 68.0 °F - 66.2 °F 94% 29.99 in 10.0 mi SSW 5.8 mph - N/A   Mostly Cloudy
8:50 AM 71.6 °F - 68.0 °F 88% 30.01 in 10.0 mi WNW 9.2 mph - N/A   Scattered Clouds
9:55 AM 77.0 °F - 68.0 °F 74% 29.99 in 10.0 mi WNW 5.8 mph - N/A   Partly Cloudy
10:50 AM 80.6 °F 83.2 °F 68.0 °F 65% 30.02 in 10.0 mi NNW 8.1 mph - N/A   Partly Cloudy
11:50 AM 82.4 °F 86.3 °F 69.8 °F 66% 30.01 in 10.0 mi NW 8.1 mph - N/A   Partly Cloudy
12:50 PM 86.0 °F 90.4 °F 69.8 °F 58% 30.01 in 10.0 mi NNW 8.1 mph - N/A   Partly Cloudy
1:55 PM 87.8 °F 92.6 °F 69.8 °F 55% 30.01 in 10.0 mi North 11.5 mph - N/A   Partly Cloudy
2:55 PM 89.6 °F 94.7 °F 69.8 °F 52% 29.99 in 10.0 mi NE 11.5 mph - N/A   Partly Cloudy
3:50 PM 91.4 °F 95.4 °F 68.0 °F 46% 29.99 in 10.0 mi North 9.2 mph - N/A   Scattered Clouds
4:50 PM 91.4 °F 96.8 °F 69.8 °F 49% 29.97 in 10.0 mi NE 9.2 mph - N/A   Scattered Clouds
5:50 PM 91.4 °F 96.8 °F 69.8 °F 49% 29.95 in 7.0 mi NE 11.5 mph 17.3 mph N/A   Scattered Clouds
6:50 PM 89.6 °F 94.7 °F 69.8 °F 52% 29.95 in 10.0 mi ENE 11.5 mph 17.3 mph N/A   Partly Cloudy
7:50 PM 87.8 °F 92.6 °F 69.8 °F 55% 29.98 in 10.0 mi ESE 11.5 mph - N/A   Scattered Clouds
8:50 PM 82.4 °F 87.2 °F 71.6 °F 70% 29.97 in 10.0 mi ESE 9.2 mph - N/A   Partly Cloudy
9:15 PM 78.8 °F - 69.8 °F 74% 29.99 in 10.0 mi East 8.1 mph - N/A   Clear
9:35 PM 78.8 °F - 69.8 °F 74% 30.00 in 10.0 mi East 6.9 mph - N/A   Clear
9:55 PM 77.0 °F - 69.8 °F 78% 30.01 in 10.0 mi East 6.9 mph - N/A   Clear
10:15 PM 77.0 °F - 69.8 °F 78% 30.03 in 10.0 mi East 6.9 mph - N/A   Clear
10:35 PM 77.0 °F - 69.8 °F 78% 30.03 in 10.0 mi East 5.8 mph - N/A   Clear
10:55 PM 75.2 °F - 69.8 °F 83% 30.04 in 10.0 mi ESE 5.8 mph - N/A   Clear
11:15 PM 73.4 °F - 69.8 °F 88% 30.04 in 10.0 mi SE 3.5 mph - N/A   Clear
11:35 PM 73.4 °F - 69.8 °F 88% 30.04 in 10.0 mi Calm Calm - N/A   Clear
11:55 PM 73.4 °F - 69.8 °F 88% 30.03 in 10.0 mi Calm Calm - N/A   Clear